Running & Sports

Kids & Family

Fitness & Health

Training


Missing

Air Force Marathon

Sat Sep 18, 2010

Dayton, OH, 45433

Air Force Marathon

4302 Participants

Expand Results

PLACE BIB ATHLETE NAME FINISH TIME
1 3305 BEN PAYNE 1:08:27
2 3300 JACOB BRADOSKY 1:08:59
3 3308 LEVI SEVERSON 1:10:01
4 3303 JACOB JOHNSON 1:10:40
5 3306 JASON SCHLARB 1:11:48
6 3356 BENJAMIN SANDY 1:12:15
7 3316 MICHAEL CHRISTMAN 1:12:44
8 3324 JOHNATHON YANEZ 1:14:37
9 3319 RICHARD JENNINGS 1:14:49
10 3310 ANDREW LEE 1:16:37
11 3302 ANTONIO EPPOLITO 1:17:07
12 8441 KYLE BOWMAN 1:17:20
13 3345 CHRISTINA JOHNSTON 1:18:20
14 3372 EMILY SHERTZER 1:18:55
15 3373 EMIL FILC 1:18:59
16 3789 BENJAMIN BONENFANT 1:19:18
17 3318 SCOTT HUBBARD 1:19:41
18 3363 JONATHON CAMPBELL 1:19:53
19 4693 BOB FEHRENBACH 1:19:53
20 3352 AARON EDWARDS 1:20:23
21 3323 STEVEN PETERSON 1:21:04
22 4410 NICK DEAN 1:21:32
23 3370 PAOLO RONCALLO 1:21:37
24 8453 PETE CRAWFORD 1:22:09
25 3362 EVAN BAYLES 1:22:24
26 3369 MARK LOONEY 1:22:30
27 3371 ANGELA SANDY 1:22:43
28 3365 DARYL DAVIS 1:22:52
29 3359 BRIAN RUGGLES 1:23:01
30 7358 STEVE SAVAGE 1:23:11
31 4869 MATTHEW GARROD 1:23:18
32 3357 JOHN BOGART 1:23:25
33 3360 MATTHEW GJERTSEN 1:23:26
34 3567 DARREN BALDWIN 1:23:32
35 3322 JENNIFER PERROTTET 1:23:36
36 6221 DOUG MAXWELL 1:23:59
37 3307 BRENDA SCHRANK 1:24:22
38 5124 KEVIN HANIGAN 1:24:46
39 3368 SAMUEL WEAVER 1:24:48
40 3315 MAUREEN CARR 1:25:00
41 3304 ANGELA MARTELL 1:25:05
42 3361 JARED DRISKILL 1:25:16
43 4509 MATHEW DONATHAN 1:26:09
44 4583 HENRY DUVALL 1:26:23
45 8283 JACOB WILLIAMS 1:26:26
46 7929 CHRISTINE TIEMAN 1:26:34
47 7749 MATTHEW STERN 1:26:48
48 3367 JAKE HAAG 1:26:52
49 7688 JARED SPENCE 1:27:33
50 8456 BRIAN DITTY 1:27:49
51 5861 WANDA KREBS 1:27:55
52 3349 REBECCA HOOVER 1:28:00
53 3354 KRISTOPHER KRAIGER 1:28:09
54 5791 ERIC KISSINGER 1:28:23
56 3936 BRENT BUNDY 1:28:27
55 6488 ROBERT MONEY 1:28:27
57 7834 DALE SUTTER 1:28:39
58 6661 JON NEWSOM 1:28:42
59 5717 JONATHAN KELP 1:28:49
60 3355 MARK FEIGHERY 1:28:50
61 6351 MITCHELL MEINERDING 1:28:58
62 7003 DUSTIN PROCKISH 1:29:13
63 7702 LOIS SPITZER 1:29:15
64 4803 RON FREELAND 1:29:20
65 5309 MIKE HEYNSBROEK 1:29:20
66 7801 ALEXANDER STUART 1:29:21
67 3366 MIKE MULLINS 1:29:38
68 5391 MARC HONRATH 1:29:39
69 8539 KYLE BRUMBAUGH 1:29:43
70 5095 BRIAN HALE 1:29:59
71 4433 CARL DELAND 1:29:59
72 6821 SCOTT PATTEN 1:30:27
73 7881 WILLIAM TEMPLE 1:30:37
74 8238 DAVID WHEELER 1:30:38
75 8170 JOHN WEGHORST 1:30:48
76 8029 ROGER VANCE 1:30:52
77 5860 MARK KREBS 1:31:02
78 5770 BRANDON KING 1:31:05
79 3317 LAUREN EDWARDS 1:31:13
81 5406 THOMAS HORAN 1:31:19
80 3351 STEVEN MOELLERING 1:31:19
82 5625 JOHNATHON JONES 1:31:23
83 6554 STACEY MORRIS 1:31:23
84 7932 BRAD TINGWALD 1:31:33
85 7115 DONALD REPOLE 1:31:35
86 3568 DAVID BALDWIN 1:32:00
87 4317 JEFF CROSBY 1:32:07
88 7682 SAMMIE SPEARS 1:32:10
89 7666 ALANAH SONNTAG 1:32:13
90 7338 MIKE SANDERS 1:32:25
91 8367 SAMUEL WRIGHT 1:32:30
92 8209 WILLIAM WERTZ 1:32:34
93 3364 CODY BURNS 1:32:36
94 8123 BRYAN WALTER 1:32:38
95 7252 STEVEN ROHRS 1:32:41
96 8314 JAMES WILSON 1:32:45
97 4459 BRADLEY DEWEES 1:33:03
98 6241 BRYAN MCARDLE 1:33:06
99 3832 KENT BRADFORD 1:33:10
100 3321 KAITLIN KOPLIN 1:33:17
PLACE BIB ATHLETE NAME AGE GENDER FINISH TIME
1 3305 BEN PAYNE 29 Male 1:08:27
2 3300 JACOB BRADOSKY 23 Male 1:08:59
3 3308 LEVI SEVERSON 30 Male 1:10:01
4 3303 JACOB JOHNSON 33 Male 1:10:40
5 3306 JASON SCHLARB 32 Male 1:11:48
6 3356 BENJAMIN SANDY 35 Male 1:12:15
7 3316 MICHAEL CHRISTMAN 32 Male 1:12:44
8 3324 JOHNATHON YANEZ 25 Male 1:14:37
9 3319 RICHARD JENNINGS 34 Male 1:14:49
10 3310 ANDREW LEE 23 Male 1:16:37
11 3302 ANTONIO EPPOLITO 42 Male 1:17:07
12 8441 KYLE BOWMAN 27 Male 1:17:20
13 3345 CHRISTINA JOHNSTON 30 Female 1:18:20
14 3372 EMILY SHERTZER 30 Female 1:18:55
15 3373 EMIL FILC 31 Male 1:18:59
16 3789 BENJAMIN BONENFANT 22 Male 1:19:18
17 3318 SCOTT HUBBARD 34 Male 1:19:41
18 3363 JONATHON CAMPBELL 33 Male 1:19:53
19 4693 BOB FEHRENBACH 42 Male 1:19:53
20 3352 AARON EDWARDS 22 Male 1:20:23
21 3323 STEVEN PETERSON 44 Male 1:21:04
22 4410 NICK DEAN 26 Male 1:21:32
23 3370 PAOLO RONCALLO 37 Male 1:21:37
24 8453 PETE CRAWFORD 30 Male 1:22:09
25 3362 EVAN BAYLES 27 Male 1:22:24
26 3369 MARK LOONEY 49 Male 1:22:30
27 3371 ANGELA SANDY 33 Female 1:22:43
28 3365 DARYL DAVIS 42 Male 1:22:52
29 3359 BRIAN RUGGLES 40 Male 1:23:01
30 7358 STEVE SAVAGE 29 Male 1:23:11
31 4869 MATTHEW GARROD 36 Male 1:23:18
32 3357 JOHN BOGART 37 Male 1:23:25
33 3360 MATTHEW GJERTSEN 27 Male 1:23:26
34 3567 DARREN BALDWIN 32 Male 1:23:32
35 3322 JENNIFER PERROTTET 30 Female 1:23:36
36 6221 DOUG MAXWELL 43 Male 1:23:59
37 3307 BRENDA SCHRANK 38 Female 1:24:22
38 5124 KEVIN HANIGAN 20 Male 1:24:46
39 3368 SAMUEL WEAVER 19 Male 1:24:48
40 3315 MAUREEN CARR 29 Female 1:25:00
41 3304 ANGELA MARTELL 26 Female 1:25:05
42 3361 JARED DRISKILL 37 Male 1:25:16
43 4509 MATHEW DONATHAN 20 Male 1:26:09
44 4583 HENRY DUVALL 24 Male 1:26:23
45 8283 JACOB WILLIAMS 31 Male 1:26:26
46 7929 CHRISTINE TIEMAN 46 Female 1:26:34
47 7749 MATTHEW STERN 29 Male 1:26:48
48 3367 JAKE HAAG 27 Male 1:26:52
49 7688 JARED SPENCE 32 Male 1:27:33
50 8456 BRIAN DITTY 30 Male 1:27:49
51 5861 WANDA KREBS 46 Female 1:27:55
52 3349 REBECCA HOOVER 23 Female 1:28:00
53 3354 KRISTOPHER KRAIGER 43 Male 1:28:09
54 5791 ERIC KISSINGER 24 Male 1:28:23
56 3936 BRENT BUNDY 29 Male 1:28:27
55 6488 ROBERT MONEY 23 Male 1:28:27
57 7834 DALE SUTTER 42 Male 1:28:39
58 6661 JON NEWSOM 35 Male 1:28:42
59 5717 JONATHAN KELP 27 Male 1:28:49
60 3355 MARK FEIGHERY 52 Male 1:28:50
61 6351 MITCHELL MEINERDING 25 Male 1:28:58
62 7003 DUSTIN PROCKISH 30 Male 1:29:13
63 7702 LOIS SPITZER 35 Female 1:29:15
64 4803 RON FREELAND 44 Male 1:29:20
65 5309 MIKE HEYNSBROEK 35 Male 1:29:20
66 7801 ALEXANDER STUART 24 Male 1:29:21
67 3366 MIKE MULLINS 32 Male 1:29:38
68 5391 MARC HONRATH 24 Male 1:29:39
69 8539 KYLE BRUMBAUGH 30 Male 1:29:43
70 5095 BRIAN HALE 43 Male 1:29:59
71 4433 CARL DELAND 42 Male 1:29:59
72 6821 SCOTT PATTEN 25 Male 1:30:27
73 7881 WILLIAM TEMPLE 42 Male 1:30:37
74 8238 DAVID WHEELER 49 Male 1:30:38
75 8170 JOHN WEGHORST 54 Male 1:30:48
76 8029 ROGER VANCE 45 Male 1:30:52
77 5860 MARK KREBS 47 Male 1:31:02
78 5770 BRANDON KING 26 Male 1:31:05
79 3317 LAUREN EDWARDS 34 Female 1:31:13
81 5406 THOMAS HORAN 24 Male 1:31:19
80 3351 STEVEN MOELLERING 34 Male 1:31:19
82 5625 JOHNATHON JONES 23 Male 1:31:23
83 6554 STACEY MORRIS 26 Female 1:31:23
84 7932 BRAD TINGWALD 45 Male 1:31:33
85 7115 DONALD REPOLE 53 Male 1:31:35
86 3568 DAVID BALDWIN 30 Male 1:32:00
87 4317 JEFF CROSBY 48 Male 1:32:07
88 7682 SAMMIE SPEARS 37 Male 1:32:10
89 7666 ALANAH SONNTAG 19 Female 1:32:13
90 7338 MIKE SANDERS 47 Male 1:32:25
91 8367 SAMUEL WRIGHT 43 Male 1:32:30
92 8209 WILLIAM WERTZ 30 Male 1:32:34
93 3364 CODY BURNS 22 Male 1:32:36
94 8123 BRYAN WALTER 30 Male 1:32:38
95 7252 STEVEN ROHRS 38 Male 1:32:41
96 8314 JAMES WILSON 54 Male 1:32:45
97 4459 BRADLEY DEWEES 23 Male 1:33:03
98 6241 BRYAN MCARDLE 30 Male 1:33:06
99 3832 KENT BRADFORD 55 Male 1:33:10
100 3321 KAITLIN KOPLIN 26 Female 1:33:17